Station 44078 - OOI Irminger Sea Surface Mooring Image indicating link to RSS feed of recent meteorological observations for station 44078


Conditions at 44078 as of
2310 GMT on 07/13/2024:
Note: This report is more than two hours old
     

Click on the graph icon in the table below to see a time series plot of the last five days of that observation.

5-day plot - Wind Direction Wind Direction (WDIR): W ( 280 deg true )
5-day plot - Wind Speed Wind Speed (WSPD): 17.5 kts
5-day plot - Atmospheric Pressure Atmospheric Pressure (PRES):29.52 in
5-day plot - Air Temperature Air Temperature (ATMP): 46.6 °F
5-day plot - Water Temperature Water Temperature (WTMP): 46.6 °F
5-day plot - Salinity Salinity (SAL): 34.80 psu
5-day plot - Wind Chill Wind Chill (CHILL): 39.0 °F
5-day plot - Wind Speed at 10 Meters Wind Speed at 10 meters (WSPD10M): 17.5 kts
5-day plot - Wind Speed at 20 Meters Wind Speed at 20 meters (WSPD20M): 19.4 kts
5-day plot -  Wind Speed, Wind Gust and Atmospheric Pressure Combined plot of Wind Speed, Gust, and Air Pressure
Previous observations
TIME
(GMT)
5-day plot - Wind Direction
WDIR
 
5-day plot - Wind Speed
WSPD
kts
5-day plot - Wind Gust
GST
kts
5-day plot - Wave Height
WVHT
ft
5-day plot - Dominant Wave Period
DPD
sec
5-day plot - Average Wave Period
APD
sec
5-day plot - Mean Wave Direction
MWD
 
5-day plot - Atmospheric Pressure
PRES
in
5-day plot - Pressure Tendency
PTDY
in
5-day plot - Air Temperature
ATMP
°F
5-day plot - Water Temperature
WTMP
°F
5-day plot - Dew Point
DEWP
°F
5-day plot - Salinity
SAL
psu
5-day plot - Visibility
VIS
nmi
5-day plot - Tide (above MLLW)
TIDE
ft
2024-07-13 2300 W 17.5-----29.51+0.03 46.6 46.6- 34.80--
2024-07-13 2250 W 17.5-----29.51- 46.6 46.6- 34.80--
2024-07-13 2240 W 17.5-----29.51- 46.6 46.6- 34.80--
2024-07-13 2230 W 17.5- 6.2-- SW29.50- 46.6 46.6- 34.80--
2024-07-13 2220 W 17.5- 6.2 6--29.50- 46.2 46.6- 34.80--
2024-07-13 2210 W 17.5-----29.51- 46.0 46.6- 34.80--
2024-07-13 2200 W 17.5-----29.50- 45.7 46.6- 34.80--
2024-07-13 2150 W 17.5-----29.49- 45.5 46.6- 34.80--
2024-07-13 2140 W 19.4-----29.49- 45.5 46.6- 34.80--
2024-07-13 2130 W 17.5- 6.2-- SW29.49- 45.7 46.6- 34.80--
2024-07-13 2120 W 19.4- 6.2 6--29.49- 45.7 46.6- 34.80--
2024-07-13 2110 W 19.4-----29.49- 45.7 46.6- 34.80--
2024-07-13 2100 W 17.5-----29.49- 45.5 46.6- 34.80--
2024-07-13 2050 W 17.5-----29.48- 45.5 46.6- 34.80--
2024-07-13 2040 W 19.4-----29.48- 45.7 46.8- 34.80--
2024-07-13 2030 W 17.5- 5.6-- SW29.48- 46.0 46.8- 34.80--
2024-07-13 2020 W 15.5- 5.6 6--29.48- 46.0 46.8- 34.80--
2024-07-13 2010 W 17.5-----29.48- 45.9 46.8- 34.80--
2024-07-13 2000 W 15.5-----29.48- 45.7 46.8- 34.80--
2024-07-13 1950 W 17.5-----29.48- 45.7 46.8- 34.80--
2024-07-13 1940 W 17.5-----29.48- 45.9 46.8- 34.79--
2024-07-13 1930 W 15.5- 5.6--SSW29.48- 46.4 46.8- 34.79--
2024-07-13 1920 W 17.5- 5.6 7--29.48- 46.6 46.8- 34.79--
2024-07-13 1910 W 17.5-----29.48- 46.8 46.8- 34.79--
2024-07-13 1900 W 15.5-----29.48- 46.9 46.8- 34.79--
2024-07-13 1850WSW 15.5-----29.48- 46.9 46.8- 34.79--
2024-07-13 1840WSW 15.5-----29.48- 46.9 46.8- 34.79--
2024-07-13 1830WSW 15.5- 5.2-- SW29.48- 46.9 46.8- 34.79--
2024-07-13 1820WSW 13.6- 5.2 6--29.48- 46.8 46.8- 34.79--
2024-07-13 1810WSW 15.5-----29.48- 46.8 46.8- 34.79--
2024-07-13 1800WSW 13.6-----29.48- 46.8 46.8- 34.79--
2024-07-13 1750WSW 15.5-----29.48- 46.8 46.8- 34.79--
2024-07-13 1740WSW 15.5-----29.48- 46.8 46.8- 34.79--
2024-07-13 1730WSW 15.5- 5.6--SSW29.48- 46.8 46.6- 34.79--
2024-07-13 1720WSW 13.6- 5.6 6--29.48- 46.6 46.6- 34.79--
2024-07-13 1710WSW 13.6-----29.48- 46.4 46.6- 34.79--
2024-07-13 1700WSW 13.6-----29.47- 46.2 46.6- 34.79--
2024-07-13 1650 W 13.6-----29.47- 46.0 46.6- 34.79--
2024-07-13 1640 W 13.6-----29.47- 46.0 46.6- 34.79--
2024-07-13 1630 W 13.6- 5.2-- SW29.47- 46.0 46.6- 34.79--
2024-07-13 1620WSW 13.6- 5.2 6--29.47- 46.0 46.6- 34.79--
2024-07-13 1610 W 15.5-----29.47- 46.0 46.6- 34.79--
2024-07-13 1600 W 13.6-----29.47- 46.0 46.6- 34.79--
2024-07-13 1550 W 13.6-----29.46- 45.9 46.6- 34.79--
2024-07-13 1540 W 13.6-----29.46- 45.9 46.6- 34.79--
2024-07-13 1530 W 13.6- 5.9-- SW29.46- 45.7 46.6- 34.79--
2024-07-13 1520 W 15.5- 5.9 6--29.46- 45.9 46.6- 34.79--
2024-07-13 1510 W 15.5-----29.46- 45.9 46.6- 34.79--
2024-07-13 1500 W 17.5-----29.46- 46.0 46.6- 34.79--
2024-07-13 1450 W 15.5-----29.46- 46.2 46.6- 34.79--
2024-07-13 1440 W 15.5-----29.46- 46.2 46.6- 34.80--
2024-07-13 1430 W 15.5- 6.2-- SW29.45- 46.2 46.6- 34.79--
2024-07-13 1420 W 17.5- 6.2 6--29.46- 46.4 46.6- 34.79--
2024-07-13 1410 W 15.5-----29.45- 46.2 46.6- 34.79--
2024-07-13 1400 W 17.5-----29.46- 46.4 46.6- 34.79--
2024-07-13 1350 W 17.5-----29.45- 46.4 46.6- 34.79--
2024-07-13 1340 W 15.5-----29.44- 46.4 46.6- 34.79--
2024-07-13 1330 W 15.5- 6.2-- SW29.44- 46.8 46.6- 34.79--
2024-07-13 1320 W 15.5- 6.2 6--29.44- 46.9 46.6- 34.79--
2024-07-13 1310 W 17.5-----29.44- 47.1 46.6- 34.79--
2024-07-13 1300 W 17.5-----29.44- 46.9 46.6- 34.79--
2024-07-13 1250 W 17.5-----29.44- 46.9 46.6- 34.79--
2024-07-13 1240 W 17.5-----29.43- 46.9 46.6- 34.79--
2024-07-13 1230WSW 17.5- 6.2-- SW29.42- 46.9 46.6- 34.79--
2024-07-13 1220 W 17.5- 6.2 6--29.42- 46.9 46.6- 34.79--
2024-07-13 1210WSW 19.4-----29.42- 46.9 46.6- 34.79--
2024-07-13 1200 W 19.4-----29.41- 46.9 46.6- 34.79--
2024-07-13 1150WSW 19.4-----29.41- 47.1 46.6- 34.79--
2024-07-13 1140WSW 17.5-----29.41- 46.9 46.6- 34.79--
2024-07-13 1130WSW 17.5- 6.6-- SW29.41- 46.6 46.6- 34.79--
2024-07-13 1120WSW 17.5- 6.6 6--29.41- 46.4 46.6- 34.79--
2024-07-13 1110WSW 17.5-----29.41- 46.4 46.6- 34.79--
2024-07-13 1100WSW 17.5-----29.42- 46.4 46.6- 34.79--
2024-07-13 1050WSW 17.5-----29.41- 46.4 46.6- 34.79--
2024-07-13 1040WSW 19.4-----29.41- 46.2 46.6- 34.79--
2024-07-13 1030 SW 19.4- 6.9-- SW29.41- 46.0 46.6- 34.79--
2024-07-13 1020 SW 17.5- 6.9 6--29.41- 46.0 46.6- 34.79--
2024-07-13 1010 SW 19.4-----29.41- 45.9 46.4- 34.79--
2024-07-13 1000WSW 17.5-----29.41- 45.7 46.4- 34.79--
2024-07-13 0950WSW 19.4-----29.41- 45.7 46.4- 34.79--
2024-07-13 0940WSW 17.5-----29.41- 45.7 46.6- 34.79--
2024-07-13 0930WSW 19.4- 7.2-- SW29.42- 45.7 46.6- 34.79--
2024-07-13 0920WSW 17.5- 7.2 6--29.41- 45.7 46.6- 34.79--
2024-07-13 0910WSW 19.4-----29.42- 45.7 46.6- 34.79--
2024-07-13 0900WSW 19.4-----29.42- 45.7 46.6- 34.79--
2024-07-13 0850WSW 19.4-----29.43- 45.7 46.6- 34.79--
2024-07-13 0840WSW 19.4-----29.42- 45.5 46.6- 34.79--
2024-07-13 0830WSW 19.4- 6.6-- SW29.42- 45.7 46.6- 34.79--
2024-07-13 0820WSW 17.5- 6.6 6--29.42- 45.7 46.6- 34.79--
2024-07-13 0810WSW 17.5-----29.42- 45.9 46.6- 34.79--
2024-07-13 0800WSW 19.4-----29.42- 46.0 46.6- 34.79--
2024-07-13 0750WSW 19.4-----29.42- 46.0 46.6- 34.79--
2024-07-13 0740WSW 19.4-----29.42- 46.2 46.6- 34.79--
2024-07-13 0730WSW 19.4- 6.2-- SW29.43- 46.2 46.6- 34.79--
2024-07-13 0720WSW 19.4- 6.2 6--29.42- 46.2 46.6- 34.79--
2024-07-13 0710WSW 19.4-----29.42- 46.2 46.6- 34.79--
2024-07-13 0700WSW 17.5-----29.41- 46.4 46.6- 34.79--
2024-07-13 0650 SW 19.4-----29.41- 46.4 46.6- 34.79--
2024-07-13 0640WSW 17.5-----29.41- 46.4 46.6- 34.79--
2024-07-13 0630WSW 17.5- 5.9-- SW29.42- 46.4 46.6- 34.79--
2024-07-13 0620WSW 17.5- 5.9 6--29.42- 46.4 46.6- 34.79--
2024-07-13 0610WSW 19.4-----29.42- 46.4 46.6- 34.79--
2024-07-13 0600WSW 17.5-----29.42- 46.4 46.6- 34.79--
2024-07-13 0550WSW 19.4-----29.42- 46.4 46.6- 34.79--
2024-07-13 0540 SW 17.5-----29.42- 46.4 46.6- 34.79--
2024-07-13 0530WSW 17.5- 5.6-- SW29.42- 46.4 46.6- 34.79--
2024-07-13 0520WSW 17.5- 5.6 6--29.43- 46.4 46.6- 34.79--
2024-07-13 0510WSW 19.4-----29.43- 46.4 46.6- 34.79--
2024-07-13 0500WSW 21.4-----29.43- 46.4 46.6- 34.79--
2024-07-13 0450WSW 19.4-----29.44- 46.4 46.6- 34.79--
2024-07-13 0440WSW 17.5-----29.44- 46.4 46.6- 34.79--
2024-07-13 0430WSW 17.5- 5.6-- SW29.45- 46.6 46.6- 34.79--
2024-07-13 0420WSW 17.5- 5.6 6--29.45- 46.6 46.6- 34.79--
2024-07-13 0410WSW 17.5-----29.45- 46.6 46.6- 34.79--
2024-07-13 0400WSW 17.5-----29.45- 46.6 46.6- 34.79--
2024-07-13 0350WSW 17.5-----29.45- 46.6 46.6- 34.79--
2024-07-13 0340 SW 17.5-----29.46- 46.6 46.6- 34.79--
2024-07-13 0330WSW 17.5- 5.6-- SW29.46- 46.8 46.6- 34.79--
2024-07-13 0320WSW 17.5- 5.6 6--29.47- 46.8 46.6- 34.79--
2024-07-13 0310WSW 19.4-----29.46- 46.8 46.6- 34.79--
2024-07-13 0300WSW 19.4-----29.47- 46.8 46.6- 34.79--
2024-07-13 0250 SW 17.5-----29.47- 46.8 46.6- 34.79--
2024-07-13 0240 SW 17.5-----29.47- 46.8 46.6- 34.79--
2024-07-13 0230WSW 19.4- 6.2-- SW29.48- 46.8 46.6- 34.79--
2024-07-13 0220WSW 17.5- 6.2 6--29.49- 46.6 46.6- 34.79--
2024-07-13 0210 SW 17.5-----29.49- 46.4 46.6- 34.79--
2024-07-13 0200 SW 17.5-----29.49- 46.4 46.6- 34.79--
2024-07-13 0150WSW 17.5-----29.49- 46.4 46.6- 34.79--

Detailed Wave Summary
for 44078 as of
2220 GMT on 07/13/2024:

Note: This report is more than two hours old

These wave data are displayed in rounded times.

     

Click on the graph icon in the table below to see a time series plot of the last five days of that observation.

5-day plot - Significant Wave Height Significant Wave Height (WVHT): 6.2 ft
5-day plot - Wave Steepness Wave Steepness (STEEPNESS):VERY_STEEP
Previous observations
TIME
(GMT)
5-day plot - Wave Height
WVHT
ft
5-day plot - Swell Height
SwH
ft
5-day plot - Swell Period
SwP
sec
5-day plot - Swell Direction
SwD
 
5-day plot - Wind Wave Height
WWH
ft
5-day plot - Wind Wave Period
WWP
sec
5-day plot - Wind Wave Direction
WWD
 
5-day plot - Wave Steepness
STEEPNESS
 
5-day plot - Average Wave Period
APD
sec
2024-07-13 2120 6.2------VERY_STEEP-
2024-07-13 2020 5.6------VERY_STEEP-
2024-07-13 1920 5.6------ STEEP-
2024-07-13 1820 5.2------ STEEP-
2024-07-13 1720 5.6------ STEEP-
2024-07-13 1620 5.2------VERY_STEEP-
2024-07-13 1520 5.9------VERY_STEEP-
2024-07-13 1420 6.2------VERY_STEEP-
2024-07-13 1320 6.2------VERY_STEEP-
2024-07-13 1220 6.2------VERY_STEEP-
2024-07-13 1120 6.6------VERY_STEEP-
2024-07-13 1020 6.9------VERY_STEEP-
2024-07-13 0920 7.2------VERY_STEEP-
2024-07-13 0820 6.6------VERY_STEEP-
2024-07-13 0720 6.2------VERY_STEEP-
2024-07-13 0620 5.9------VERY_STEEP-
2024-07-13 0520 5.6------VERY_STEEP-
2024-07-13 0420 5.6------VERY_STEEP-
2024-07-13 0320 5.6------VERY_STEEP-
2024-07-13 0220 6.2------VERY_STEEP-

Ocean Conditions at 44078 as of
2310 GMT on 07/13/2024:
Note: This report is more than two hours old

These oceanographic data are displayed in rounded times.

     

Click on the graph icon in the table below to see a time series plot of the last five days of that observation.

Depth (DEPTH): 3.0 ft
5-day plot - Ocean Temperature Ocean Temperature (OTMP):46.63 °F
5-day plot - Salinity Salinity (SAL):34.80 psu
Previous observations
TIME
(GMT)
DEPTH
ft
5-day plot - Ocean Temperature
OTMP
°F
5-day plot - Conductivity
COND
mS/cm
5-day plot - Salinity
SAL
psu
5-day plot - Oxygen Concentration
O2%
%
5-day plot - Oxygen Concentration
O2PPM
ppm
5-day plot - Chlorophyll
CLCON
ug/l
5-day plot - Turbidity
TURB
FTU
5-day plot - pH
PH
 
5-day plot - Eh
EH
mv
2024-07-13 2300 3.046.63-34.80------
2024-07-13 2250 3.046.63-34.80------
2024-07-13 2240 3.046.63-34.80------
2024-07-13 2230 3.046.63-34.80------
2024-07-13 2220 3.046.63-34.80------
2024-07-13 2210 3.046.63-34.80------
2024-07-13 2200 3.046.63-34.80------
2024-07-13 2150 3.046.63-34.80------
2024-07-13 2140 3.046.65-34.80------
2024-07-13 2130 3.046.65-34.80------
2024-07-13 2120 3.046.65-34.80------
2024-07-13 2110 3.046.65-34.80------
2024-07-13 2100 3.046.65-34.80------
2024-07-13 2050 3.046.67-34.80------
2024-07-13 2040 3.046.67-34.80------
2024-07-13 2030 3.046.69-34.80------
2024-07-13 2020 3.046.69-34.80------
2024-07-13 2010 3.046.69-34.80------
2024-07-13 2000 3.046.69-34.80------
2024-07-13 1950 3.046.69-34.80------
2024-07-13 1940 3.046.72-34.79------
2024-07-13 1930 3.046.72-34.79------
2024-07-13 1920 3.046.72-34.79------
2024-07-13 1910 3.046.72-34.79------
2024-07-13 1900 3.046.72-34.79------
2024-07-13 1850 3.046.72-34.79------
2024-07-13 1840 3.046.69-34.79------
2024-07-13 1830 3.046.71-34.79------
2024-07-13 1820 3.046.72-34.79------
2024-07-13 1810 3.046.71-34.79------
2024-07-13 1800 3.046.71-34.79------
2024-07-13 1750 3.046.67-34.79------
2024-07-13 1740 3.046.67-34.79------
2024-07-13 1730 3.046.67-34.79------
2024-07-13 1720 3.046.67-34.79------
2024-07-13 1710 3.046.67-34.79------
2024-07-13 1700 3.046.65-34.79------
2024-07-13 1650 3.046.65-34.79------
2024-07-13 1640 3.046.63-34.79------
2024-07-13 1630 3.046.62-34.79------
2024-07-13 1620 3.046.63-34.79------
2024-07-13 1610 3.046.62-34.79------
2024-07-13 1600 3.046.60-34.79------
2024-07-13 1550 3.046.60-34.79------
2024-07-13 1540 3.046.60-34.79------
2024-07-13 1530 3.046.60-34.79------
2024-07-13 1520 3.046.58-34.79------
2024-07-13 1510 3.046.58-34.79------
2024-07-13 1500 3.046.58-34.79------
2024-07-13 1450 3.046.56-34.79------
2024-07-13 1440 3.046.58-34.80------
2024-07-13 1430 3.046.56-34.79------
2024-07-13 1420 3.046.53-34.79------
2024-07-13 1410 3.046.56-34.79------
2024-07-13 1400 3.046.54-34.79------
2024-07-13 1350 3.046.54-34.79------
2024-07-13 1340 3.046.56-34.79------
2024-07-13 1330 3.046.56-34.79------
2024-07-13 1320 3.046.54-34.79------
2024-07-13 1310 3.046.54-34.79------
2024-07-13 1300 3.046.53-34.79------
2024-07-13 1250 3.046.53-34.79------
2024-07-13 1240 3.046.53-34.79------
2024-07-13 1230 3.046.51-34.79------
2024-07-13 1220 3.046.51-34.79------
2024-07-13 1210 3.046.53-34.79------
2024-07-13 1200 3.046.53-34.79------
2024-07-13 1150 3.046.53-34.79------
2024-07-13 1140 3.046.51-34.79------
2024-07-13 1130 3.046.51-34.79------
2024-07-13 1120 3.046.49-34.79------
2024-07-13 1110 3.046.51-34.79------
2024-07-13 1100 3.046.51-34.79------
2024-07-13 1050 3.046.51-34.79------
2024-07-13 1040 3.046.49-34.79------
2024-07-13 1030 3.046.49-34.79------
2024-07-13 1020 3.046.49-34.79------
2024-07-13 1010 3.046.49-34.79------
2024-07-13 1000 3.046.49-34.79------
2024-07-13 0950 3.046.49-34.79------
2024-07-13 0940 3.046.49-34.79------
2024-07-13 0930 3.046.49-34.79------
2024-07-13 0920 3.046.49-34.79------
2024-07-13 0910 3.046.49-34.79------
2024-07-13 0900 3.046.51-34.79------
2024-07-13 0850 3.046.51-34.79------
2024-07-13 0840 3.046.51-34.79------
2024-07-13 0830 3.046.51-34.79------
2024-07-13 0820 3.046.51-34.79------
2024-07-13 0810 3.046.51-34.79------
2024-07-13 0800 3.046.51-34.79------
2024-07-13 0750 3.046.53-34.79------
2024-07-13 0740 3.046.53-34.79------
2024-07-13 0730 3.046.53-34.79------
2024-07-13 0720 3.046.53-34.79------
2024-07-13 0710 3.046.53-34.79------
2024-07-13 0700 3.046.53-34.79------
2024-07-13 0650 3.046.53-34.79------
2024-07-13 0640 3.046.53-34.79------
2024-07-13 0630 3.046.54-34.79------
2024-07-13 0620 3.046.54-34.79------
2024-07-13 0610 3.046.54-34.79------
2024-07-13 0600 3.046.54-34.79------
2024-07-13 0550 3.046.54-34.79------
2024-07-13 0540 3.046.56-34.79------
2024-07-13 0530 3.046.56-34.79------
2024-07-13 0520 3.046.58-34.79------
2024-07-13 0510 3.046.58-34.79------
2024-07-13 0500 3.046.58-34.79------
2024-07-13 0450 3.046.60-34.79------
2024-07-13 0440 3.046.60-34.79------
2024-07-13 0430 3.046.60-34.79------
2024-07-13 0420 3.046.60-34.79------
2024-07-13 0410 3.046.62-34.79------
2024-07-13 0400 3.046.62-34.79------
2024-07-13 0350 3.046.62-34.79------
2024-07-13 0340 3.046.62-34.79------
2024-07-13 0330 3.046.62-34.79------
2024-07-13 0320 3.046.62-34.79------
2024-07-13 0310 3.046.63-34.79------
2024-07-13 0300 3.046.63-34.79------
2024-07-13 0250 3.046.63-34.79------
2024-07-13 0240 3.046.63-34.79------
2024-07-13 0230 3.046.63-34.79------
2024-07-13 0220 3.046.63-34.79------
2024-07-13 0210 3.046.63-34.79------
2024-07-13 0200 3.046.63-34.79------
2024-07-13 0150 3.046.63-34.79------

Solar Radiation Conditions at 44078 as of
2310 GMT on 07/13/2024:
Note: This report is more than two hours old
     

Click on the graph icon in the table below to see a time series plot of the last five days of that observation.

5-day plot - Short Wave Radiation 1 Short Wave Radiation 1 (SRAD1): 29.7watts/meter2
5-day plot - Long Wave Radiation Long Wave Radiation (LWRAD): 270.3watts/meter2
Previous observations
TIME
(GMT)
5-day plot - Short Wave Radiation 1
SRAD1
w/m2
5-day plot - Short Wave Radiation 2
SRAD2
w/m2
5-day plot - Long Wave Radiation
LRAD
w/m2
2024-07-13 2300 33.2- 269.6
2024-07-13 2250 43.2- 269.4
2024-07-13 2240 54.7- 269.2
2024-07-13 2230 64.6- 268.7
2024-07-13 2220 78.3- 268.4
2024-07-13 2210 91.6- 267.7
2024-07-13 2200 105.9- 267.5
2024-07-13 2150 117.8- 266.6
2024-07-13 2140 134.6- 266.0
2024-07-13 2130 145.3- 266.4
2024-07-13 2120 159.5- 266.3
2024-07-13 2110 172.2- 266.1
2024-07-13 2100 188.3- 266.6
2024-07-13 2050 205.7- 266.8
2024-07-13 2040 229.6- 266.9
2024-07-13 2030 244.8- 267.6
2024-07-13 2020 268.8- 267.6
2024-07-13 2010 298.6- 267.3
2024-07-13 2000 321.4- 267.4
2024-07-13 1950 348.8- 267.3
2024-07-13 1940 370.8- 267.5
2024-07-13 1930 397.5- 268.7
2024-07-13 1920 417.7- 268.6
2024-07-13 1910 440.6- 268.7
2024-07-13 1900 465.0- 269.8
2024-07-13 1850 489.7- 270.5
2024-07-13 1840 507.0- 271.1
2024-07-13 1830 530.8- 271.4
2024-07-13 1820 548.7- 271.7
2024-07-13 1810 567.4- 271.9
2024-07-13 1800 585.1- 271.6
2024-07-13 1750 600.0- 272.7
2024-07-13 1740 613.3- 273.8
2024-07-13 1730 647.9- 277.7
2024-07-13 1720 747.5- 298.1
2024-07-13 1710 584.1- 316.4
2024-07-13 1700 518.9- 326.2
2024-07-13 1650 508.8- 324.6
2024-07-13 1640 500.9- 328.7
2024-07-13 1630 472.1- 325.9
2024-07-13 1620 575.7- 321.7
2024-07-13 1610 479.1- 323.8
2024-07-13 1600 420.0- 333.2
2024-07-13 1550 510.8- 333.2
2024-07-13 1540 451.4- 334.3
2024-07-13 1530 385.1- 337.7
2024-07-13 1520 482.4- 330.5
2024-07-13 1510 341.0- 337.4
2024-07-13 1500 273.7- 338.0
2024-07-13 1450 273.3- 336.5
2024-07-13 1440 551.3- 328.2
2024-07-13 1430 397.2- 323.6
2024-07-13 1420 614.8- 316.7
2024-07-13 1410 395.3- 331.7
2024-07-13 1400 598.7- 324.4
2024-07-13 1350 565.8- 318.2
2024-07-13 1340 445.3- 307.9
2024-07-13 1330 654.7- 288.3
2024-07-13 1320 719.1- 293.0
2024-07-13 1310 786.1- 281.8
2024-07-13 1300 721.5- 277.7
2024-07-13 1250 694.2- 280.9
2024-07-13 1240 540.3- 283.9
2024-07-13 1230 567.9- 286.9
2024-07-13 1220 380.1- 295.3
2024-07-13 1210 329.9- 306.1
2024-07-13 1200 384.2- 307.9
2024-07-13 1150 667.5- 299.6
2024-07-13 1140 608.5- 301.7
2024-07-13 1130 408.9- 309.4
2024-07-13 1120 348.7- 310.3
2024-07-13 1110 537.8- 307.1
2024-07-13 1100 532.4- 307.1
2024-07-13 1050 668.9- 305.6
2024-07-13 1040 558.1- 303.6
2024-07-13 1030 485.9- 305.6
2024-07-13 1020 444.0- 316.0
2024-07-13 1010 379.7- 325.2
2024-07-13 1000 207.2- 337.9
2024-07-13 0950 260.5- 342.5
2024-07-13 0940 202.2- 344.9
2024-07-13 0930 233.4- 345.8
2024-07-13 0920 157.1- 347.4
2024-07-13 0910 95.4- 347.6
2024-07-13 0900 90.3- 347.8
2024-07-13 0850 74.4- 348.1
2024-07-13 0840 55.0- 348.0
2024-07-13 0830 48.3- 348.6
2024-07-13 0820 29.6- 348.9
2024-07-13 0810 25.2- 349.3
2024-07-13 0800 33.1- 349.3
2024-07-13 0750 33.0- 349.4
2024-07-13 0740 30.0- 349.5
2024-07-13 0730 30.6- 349.5
2024-07-13 0720 31.9- 349.1
2024-07-13 0710 32.9- 349.1
2024-07-13 0700 28.1- 349.2
2024-07-13 0650 24.6- 348.6
2024-07-13 0640 23.0- 348.8
2024-07-13 0630 18.5- 349.0
2024-07-13 0620 15.2- 349.5
2024-07-13 0610 12.6- 349.3
2024-07-13 0600 10.3- 349.5
2024-07-13 0550 9.2- 349.5
2024-07-13 0540 8.0- 349.5
2024-07-13 0530 7.7- 349.6
2024-07-13 0520 7.1- 349.6
2024-07-13 0510 6.8- 349.5
2024-07-13 0500 6.6- 349.5
2024-07-13 0450 6.4- 349.7
2024-07-13 0440 6.4- 349.7
2024-07-13 0430 6.4- 349.6
2024-07-13 0420 6.4- 349.5
2024-07-13 0410 6.3- 349.5
2024-07-13 0400 6.4- 349.4
2024-07-13 0350 6.4- 349.4
2024-07-13 0340 6.4- 349.4
2024-07-13 0330 6.4- 349.3
2024-07-13 0320 6.4- 349.0
2024-07-13 0310 6.4- 348.7
2024-07-13 0300 6.5- 348.5
2024-07-13 0250 6.4- 347.8
2024-07-13 0240 6.4- 347.7
2024-07-13 0230 6.5- 347.1
2024-07-13 0220 6.4- 347.0
2024-07-13 0210 6.3- 343.9
2024-07-13 0200 6.3- 341.9
2024-07-13 0150 6.4- 343.0